カタログに戻る

STARLINK-3366

運用中通信VLEO
NORAD 51104·PAYLOAD·🇺🇸 United States

打ち上げ Jan 19, 2022 から Cape Canaveral Space Force Station

Loading…

次のパス (今後24時間)

TLE

最新Source: CelesTrak SupGP

元期: Sep 15, 2026, 02:35 UTC

1 51104C 22005A   26258.10812500  .00060767  00000+0  26652-2 0  2586
2 51104  53.1976 155.8771 0001629  87.9518 131.5575 15.21422720    18

AllMySatでSTARLINK-3366をリアルタイム追跡

Download on the App Store